Location: Moscow
(55.7500°N, 37.5830°E)
Time: 16:35:17
(UTC+03:00)

Transit 2A - Pass Details

Date: 03 December 2021
Orbit: 591 x 967 km, 66.7° (Epoch: 17 January)

Event Time Altitude Azimuth Distance (km) Brightness Sun altitude
Rises 00:33:07 0° 189° (S) 3,334 - -56.2°
Reaches altitude 10° 00:35:37 10° 180° (S) 2,463 - -56.2°
Maximum altitude 00:40:50 37° 116° (ESE) 1,374 - -56.1°
Drops below altitude 10° 00:46:27 10° 52° (NE) 2,664 - -56.0°
Exits shadow 00:49:05 - 45° (NE) 3,588 9.9 -55.9°
Sets 00:49:14 0° 44° (NE) 3,641 9.9 -55.9°
